Location: Unspecified
(0.0000°N, 0.0000°E)
Time: 16:21:16
(UTC+00:00)

NOSS 2-1 (D) - Visible Passes

Search period start: 28 May 2023 00:00
Search period end: 07 June 2023 00:00
Orbit: 401 x 1770 km, 63.3° (Epoch: 04 May)

Date Brightness Start Highest point End Pass type
(mag) Time Alt. Az. Time Alt. Az. Time Alt. Az.
28 May 4.4 04:28:13 38° WNW 04:28:21 38° WNW 04:32:20 10° N visible
29 May 5.1 03:39:36 34° NE 03:39:36 34° NE 03:41:54 10° NNE visible
30 May 5.8 04:37:51 11° NW 04:37:51 11° NW 04:38:14 10° NW visible
31 May 6.0 03:48:58 13° N 03:48:58 13° N 03:49:25 10° N visible
